ATS 1 1 02608U 66110A 10073.90936540 -.00000041 00000-0 10000-3 0 662 2 02608 7.4433 309.3290 0002276 203.0817 156.8220 1.00293266 75222 ATS 3 1 03029U 67111A 10075.16548547 -.00000105 00000-0 10000-3 0 5912 2 03029 9.0285 316.4873 0017186 47.1045 124.3955 1.00272041155104 ORIZURU (DEBUT) 1 20479U 90013B 10075.14860110 -.00000047 00000-0 -23900-4 0 5266 2 20479 99.0476 311.9544 0538742 269.3560 84.5831 12.83692479941921 SURFSAT 1 23711U 95059B 10074.54888765 .00000082 00000-0 24966-3 0 4697 2 23711 100.3127 74.3825 0367949 219.4783 137.8955 13.12574059688031 MAQSAT H 1 25023U 97066A 10075.11237081 -.00000069 00000-0 10807-3 0 7753 2 25023 7.7715 59.6676 6506641 96.8084 335.9036 3.09469944139777 MAQSAT B 1 25024U 97066B 10074.12371567 -.00000102 00000-0 31715-4 0 8236 2 25024 7.7942 56.6457 6522601 102.0433 333.2167 3.08764817139622 TEAMSAT 1 25025U 97066C 10072.39015627 -.00000043 00000-0 32430-3 0 8245 2 25025 7.8144 72.5987 6518731 70.4623 346.1643 3.07909291139179 OPAL (OO-38) 1 26063U 00004C 10075.05044587 .00000011 00000-0 23983-4 0 7525 2 26063 100.2281 276.6825 0036720 215.6856 144.1867 14.35887958530962 FALCONSAT 1 26064U 00004D 10074.33944696 -.00000020 00000-0 13799-4 0 7105 2 26064 100.2305 273.6735 0037934 225.1978 134.6107 14.35439302530716 PICOSAT 1 & 2 [TETHERED] 1 26080U 00004H 10074.09041315 .00000128 00000-0 58626-4 0 2989 2 26080 100.2139 301.3669 0032962 162.4803 197.7538 14.40398671530481 PICOSAT 3 1 26091U 00004J 10074.77556604 .00000249 00000-0 90654-4 0 8626 2 26091 100.2024 314.8259 0031625 119.0257 241.4121 14.43522437530607 PICOSAT 4 1 26092U 00004K 10074.26273803 .00000137 00000-0 61377-4 0 6958 2 26092 100.2073 295.3813 0035858 157.1507 203.1260 14.40361508529721 PICOSAT 5 1 26093U 00004L 10074.20630830 .00000220 00000-0 79931-4 0 5946 2 26093 100.1959 321.6531 0033103 101.2897 259.2003 14.45077125531192 PICOSAT 6 1 26094U 00004M 10075.04205599 .00000179 00000-0 75623-4 0 9345 2 26094 100.2136 294.4005 0035174 166.6706 193.5431 14.39647893529323 SNAP 1 1 26386U 00033C 10074.78451990 .00000132 00000-0 33797-4 0 9502 2 26386 98.3501 116.7030 0012700 65.5541 294.6968 14.65212611518936 CHAMP 1 26405U 00039B 10074.15167439 .00040727 -69317-6 11676-3 0 1457 2 26405 87.2206 202.7658 0002270 93.8047 266.3499 15.92962207552640 PICOSAT 9 1 26930U 01043B 10074.35553642 -.00000005 00000-0 30315-4 0 3898 2 26930 67.0009 61.9500 0010813 259.9174 100.0700 14.30065245441518 PROBA-1 1 26958U 01049B 10075.14659314 .00000451 00000-0 49934-4 0 5269 2 26958 97.5835 132.5120 0081291 184.2862 175.7657 14.89758361456314 CUTE-1 (CO-55) 1 27844U 03031E 10074.56752478 .00000066 00000-0 50931-4 0 8014 2 27844 98.7136 84.8815 0010908 80.2329 280.0092 14.20690755347797 CANX-1 1 27847U 03031H 10073.50370644 .00000036 00000-0 36721-4 0 7232 2 27847 98.7043 84.7168 0010337 63.7288 296.4957 14.21000172347681 CUBESAT XI-IV (CO-57) 1 27848U 03031J 10074.58349830 .00000046 00000-0 41601-4 0 7532 2 27848 98.7176 83.9747 0010654 84.3650 275.8749 14.20485419347755 NAXING 1 1 28221U 04012B 10074.74197942 .00000167 00000-0 23733-4 0 4336 2 28221 97.4641 99.5648 0012359 23.3946 336.7791 14.87979344320698 ST5-A 1 28980U 06008A 10074.57744340 .00003867 00000-0 22265-3 0 2433 2 28980 105.6871 79.8842 2347801 255.4331 77.6730 10.63376263153807 ST5-B 1 28981U 06008B 10074.65027881 .00010470 18112-5 34376-3 0 3092 2 28981 105.6252 106.4479 2315695 226.2432 112.2289 10.78268924155007 ST5-C 1 28982U 06008C 10074.50217584 .00008134 17955-5 31698-3 0 3067 2 28982 105.6566 99.4297 2329421 237.1311 98.4186 10.73372294154599 GENESIS 1 1 29252U 06029A 10074.78296003 .00000669 00000-0 61564-4 0 48 2 29252 64.5107 206.2949 0003720 25.5720 334.5599 15.03550563201745 FALCONSAT-3 1 30776U 07006E 10074.52395335 .00000772 00000-0 58495-4 0 7857 2 30776 35.4334 252.8906 0000587 4.0360 356.0375 15.03520862165959 GENESIS 2 1 31789U 07028A 10074.86461158 .00000591 00000-0 56046-4 0 7523 2 31789 64.5035 237.4964 0042523 222.5631 137.2215 15.03222666148967 APRIZESAT 4 1 35684U 09041D 10075.16152299 .00000326 00000-0 54250-4 0 2093 2 35684 98.1137 335.5654 0049688 343.5544 16.4080 14.76056946 33846 APRIZESAT 3 1 35686U 09041F 10074.49809173 .00000207 00000-0 31683-4 0 2004 2 35686 98.1133 337.2428 0079615 343.0368 16.8185 14.82540264 33897 PROBA-2 1 36037U 09059B 10074.54781957 -.00000045 00000-0 00000+0 0 1126 2 36037 98.3094 263.5690 0012583 200.9407 159.1279 14.51975996 19365